[[{"header":{"parameterUnit":"m.s-1","parameterCategory":1,"la1":30.2991,"la2":30.254,"lo1":-89.0895,"lo2":-89.0444,"dy":0.0017,"dx":0.0017,"nx":28,"ny":28,"refTime":"2023-10-14T03:00:00:Z","depth":0,"parameterNumber":2,"parameterNumberName":"U-component_of_WINDS"},"data":[0,0,0,0,0,0,0,0,0,0,0,0,0,0,0,0,0,0,0,0,0,0,0,0,0,0,0,0,0,0,0,0,0,0,0,0,0,0,0,0,0,0,0,0,0,0,0,0,0,0,0,0,0,0,0,0,0,0,3.1608,3.1608,0,3.1605,3.1605,3.1605,3.1569,3.1569,3.1568,3.1567,3.1563,3.1563,3.1564,0,0,0,0,0,0,0,0,0,0,0,0,0,3.1585,3.1586,3.1608,3.1608,3.1608,3.1605,3.1605,3.1605,3.157,3.1568,3.1567,3.1566,3.1562,3.1563,3.1564,0,0,0,0,0,0,0,0,0,0,0,0,0,3.159,3.1586,3.1608,3.159,3.1589,3.1605,3.1605,3.1605,3.157,3.1568,3.1567,3.1566,3.1562,3.1563,3.1564,3.1597,0,0,3.1567,3.1568,0,0,0,0,0,0,0,0,3.159,3.1591,3.1593,3.1592,3.159,3.1586,3.1595,3.1602,3.157,3.1577,3.1567,3.1565,3.1571,3.1572,3.1574,3.1597,3.1597,3.1567,3.1568,3.1569,3.1569,0,0,0,0,0,0,0,3.1589,3.1591,3.1607,3.1593,3.1591,3.1583,3.1582,3.1596,3.1582,3.1576,3.1574,3.1574,3.157,3.1573,3.1574,3.1597,3.1567,3.1568,3.1569,3.1569,3.1649,3.165,0,0,0,0,0,0,3.1592,3.1591,3.1607,3.1607,3.1587,3.1584,3.1583,3.1589,3.1581,3.1579,3.1575,3.1572,3.1572,3.1572,3.1573,3.1612,3.1569,3.157,3.157,3.1647,3.1649,3.1651,0,0,0,0,0,0,3.1591,3.1593,3.1607,3.1598,3.1599,3.1586,3.1592,3.1589,3.1592,3.158,3.1578,3.158,3.1571,3.1572,3.1592,3.1612,3.157,3.1571,3.1645,3.1648,3.165,3.169,0,0,0,0,0,0,3.1591,3.1593,3.1606,3.1599,3.16,3.1626,3.1594,3.159,3.1594,3.159,3.1585,3.1582,3.157,3.1591,3.1593,3.1612,3.1572,3.1644,3.1646,3.1649,3.1687,3.1694,3.1699,0,0,0,0,0,3.159,3.1617,3.1606,3.1608,3.1615,3.1627,3.1628,3.1613,3.1596,3.1608,3.1601,3.1583,3.1609,3.1593,3.1595,3.1615,3.1642,3.1646,3.1649,3.1685,3.1693,3.1699,0,0,0,0,0,0,3.1625,3.1615,3.1604,3.1629,3.1629,3.1621,3.1636,3.1621,3.1626,3.1622,3.1604,3.1603,3.1626,3.1623,3.1605,3.1648,3.1623,3.1627,3.1649,3.1657,3.1662,3.1663,3.1573,0,0,0,0,0,3.1636,3.1647,3.1638,3.1661,3.1662,3.1649,3.1654,3.1642,3.1642,3.1642,3.1636,3.1636,3.1645,3.165,3.1657,3.1687,3.1686,3.1702,3.1708,3.1713,3.1717,3.1733,3.1741,3.1661,3.1661,3.1661,0,0,3.1658,3.1654,3.1662,3.1668,3.1667,3.1679,3.1649,3.1663,3.1671,3.1643,3.1662,3.1659,3.1658,3.1683,3.1694,3.1681,3.1739,3.1717,3.1722,3.1722,3.1738,3.1745,3.1752,3.1664,3.1663,3.1663,0,0,3.1705,3.1703,3.1722,3.1722,3.1721,3.1713,3.1718,3.1713,3.1709,3.1728,3.1708,3.1718,3.1733,3.1734,3.1736,3.1786,3.1769,3.1788,3.182,3.1836,3.1842,3.1848,3.1866,3.1873,3.1792,3.1792,3.1792,0,3.1732,3.175,3.1734,3.175,3.1753,3.173,3.175,3.175,3.1752,3.1755,3.1741,3.176,3.1758,3.1784,3.1796,3.1798,3.1804,3.1788,3.1843,3.1848,3.1853,3.187,3.1877,3.1794,3.1794,3.1794,3.1794,0,3.1784,3.1797,3.1813,3.1816,3.1821,3.1839,3.1827,3.1834,3.1823,3.1817,3.1837,3.1834,3.184,3.1846,3.1835,3.1871,3.1863,3.1846,3.182,3.1863,3.1879,3.1886,3.1798,3.1797,3.1796,3.1796,0,0,3.1851,3.1847,3.1853,3.1855,3.1853,3.1863,3.188,3.1887,3.1895,3.1897,3.1911,3.1926,3.1911,3.1913,3.1902,3.1917,3.1958,3.1898,3.1898,3.191,3.1998,3.2011,3.2019,3.1947,3.1948,3.1949,3.1999,0,3.1897,3.1926,3.1914,3.1944,3.1956,3.1935,3.195,3.1951,3.1946,3.1956,3.195,3.1961,3.194,3.1942,3.1955,3.195,3.1975,3.1946,3.1961,3.1961,3.1962,3.2027,3.204,3.2087,3.2005,3.2006,3.2006,0,3.1953,3.1959,3.1991,3.1989,3.1993,3.2007,3.2014,3.2023,3.2024,3.202,3.2024,3.201,3.2028,3.2003,3.2028,3.2008,3.2014,3.2012,3.2014,3.2014,3.1986,3.203,3.2101,3.2108,3.2016,3.2015,3.2014,0,3.2,3.2015,3.2037,3.2039,3.2037,3.2048,3.2047,3.2047,3.2053,3.2059,3.2062,3.207,3.2074,3.2081,3.207,3.2053,3.2097,3.207,3.2094,3.2094,3.2103,3.2103,3.2177,3.2107,3.2107,3.2107,3.2107,0,3.2051,3.2072,3.2058,3.2071,3.2094,3.2081,3.2104,3.2101,3.2102,3.2114,3.2097,3.2109,3.2094,3.2105,3.2097,3.2119,3.2121,3.2118,3.2116,3.212,3.212,3.2123,3.2119,3.2109,3.2108,3.2108,3.2108,0,3.2107,3.2098,3.2121,3.2118,3.2117,3.2135,3.2132,3.2144,3.2139,3.2156,3.2159,3.215,3.2163,3.2153,3.2165,3.2159,3.2189,3.2181,3.2188,3.2186,3.221,3.2209,3.2288,3.2299,3.2222,3.2223,3.2224,0,3.214,3.2156,3.2155,3.2163,3.2164,3.2176,3.2182,3.217,3.2177,3.2181,3.2193,3.2205,3.2213,3.2234,3.2229,3.2238,3.2232,3.2259,3.2233,3.2237,3.2233,3.2232,3.2234,3.2264,3.2265,3.2266,3.2266,0,3.2201,3.2197,3.2207,3.2216,3.2224,3.223,3.2235,3.2242,3.223,3.2239,3.2252,3.2259,3.2272,3.2283,3.2292,3.2291,3.2277,3.2275,3.2281,3.2285,3.2289,3.2288,3.2203,3.2273,3.2272,3.2272,3.2271,3.2271,3.2247,3.2261,3.2263,3.2275,3.2277,3.2283,3.2295,3.2292,3.2302,3.2312,3.2304,3.232,3.2323,3.2332,3.2334,3.2347,3.2335,3.2344,3.2346,3.2348,3.2352,3.2287,3.2348,3.2348,3.2348,3.2348,3.2347,0,3.2308,3.2308,3.2319,3.2327,3.2337,3.2324,3.2329,3.2338,3.2353,3.2356,3.2365,3.2381,3.2393,3.2389,3.24,3.2411,3.2405,3.2414,3.2413,3.2414,3.2361,3.2355,3.2419,3.2419,3.2419,3.2419,3.2419,3.2419,3.234,3.2363,3.2359,3.2383,3.2383,3.2399,3.2404,3.2409,3.2412,3.243,3.244,3.2438,3.244,3.2451,3.2461,3.246,3.2465,3.2477,3.2473,3.2424,3.2417,3.241,3.2405,3.2478,3.2478,3.2524,3.2525,3.2525]},{"header":{"parameterUnit":"m.s-1","parameterCategory":1,"la1":30.2991,"la2":30.254,"lo1":-89.0895,"lo2":-89.0444,"dy":0.0017,"dx":0.0017,"nx":28,"ny":28,"refTime":"2023-10-14T03:00:00:Z","depth":0,"parameterNumber":3,"parameterNumberName":"V-component_of_WINDS"},"data":[0,0,0,0,0,0,0,0,0,0,0,0,0,0,0,0,0,0,0,0,0,0,0,0,0,0,0,0,0,0,0,0,0,0,0,0,0,0,0,0,0,0,0,0,0,0,0,0,0,0,0,0,0,0,0,0,0,0,-6.3959,-6.396,0,-6.4027,-6.4028,-6.4029,-6.401,-6.4009,-6.4007,-6.4006,-6.407,-6.4073,-6.4076,0,0,0,0,0,0,0,0,0,0,0,0,0,-6.381,-6.3812,-6.3959,-6.396,-6.3961,-6.4027,-6.4028,-6.4029,-6.401,-6.4009,-6.4007,-6.4006,-6.4069,-6.4073,-6.4076,0,0,0,0,0,0,0,0,0,0,0,0,0,-6.3876,-6.3813,-6.3959,-6.396,-6.3961,-6.4027,-6.4028,-6.4029,-6.4011,-6.4009,-6.4007,-6.4005,-6.4068,-6.4072,-6.4077,-6.4145,0,0,-6.409,-6.4092,0,0,0,0,0,0,0,0,-6.3872,-6.3881,-6.3959,-6.396,-6.3961,-6.4008,-6.3999,-6.4068,-6.4011,-6.3992,-6.4006,-6.4004,-6.4051,-6.4057,-6.4074,-6.4148,-6.415,-6.4091,-6.4093,-6.4095,-6.4096,0,0,0,0,0,0,0,-6.3867,-6.3878,-6.3986,-6.396,-6.3961,-6.3955,-6.3963,-6.4012,-6.4031,-6.3993,-6.3992,-6.4001,-6.4051,-6.4069,-6.4075,-6.4151,-6.4091,-6.4094,-6.4097,-6.4099,-6.4286,-6.4288,0,0,0,0,0,0,-6.3863,-6.3874,-6.3984,-6.3988,-6.3911,-6.396,-6.3968,-6.3995,-6.4031,-6.4035,-6.4002,-6.3999,-6.4063,-6.407,-6.4077,-6.416,-6.4095,-6.4099,-6.4102,-6.4283,-6.4286,-6.4289,0,0,0,0,0,0,-6.386,-6.3873,-6.3981,-6.3931,-6.3944,-6.3965,-6.3995,-6.3997,-6.4016,-6.4038,-6.4041,-6.4018,-6.4061,-6.4071,-6.4129,-6.4162,-6.4101,-6.4105,-6.4281,-6.4284,-6.4287,-6.4325,0,0,0,0,0,0,-6.3855,-6.3872,-6.3898,-6.3932,-6.3947,-6.4033,-6.3997,-6.4,-6.4024,-6.4021,-6.4053,-6.4056,-6.4061,-6.4122,-6.4133,-6.4167,-6.4109,-6.4278,-6.4282,-6.4286,-6.4321,-6.4329,-6.4336,0,0,0,0,0,-6.385,-6.3905,-6.39,-6.3913,-6.3981,-6.4035,-6.4043,-6.4048,-6.4027,-6.4053,-6.4068,-6.4055,-6.4157,-6.4128,-6.414,-6.4176,-6.4276,-6.4281,-6.4286,-6.4317,-6.4327,-6.4336,0,0,0,0,0,0,-6.3872,-6.3909,-6.3904,-6.3971,-6.4,-6.4031,-6.4065,-6.4059,-6.4093,-6.4088,-6.4092,-6.4099,-6.4159,-6.4173,-6.4141,-6.4244,-6.4213,-6.422,-6.4232,-6.4242,-6.425,-6.4245,-6.4113,0,0,0,0,0,-6.3885,-6.3927,-6.3956,-6.4013,-6.4028,-6.4044,-6.4068,-6.407,-6.4099,-6.411,-6.4129,-6.4156,-6.4194,-6.4219,-6.4255,-6.4323,-6.433,-6.4353,-6.4361,-6.4368,-6.4374,-6.4412,-6.4423,-6.4305,-6.4305,-6.4305,0,0,-6.3911,-6.3937,-6.3963,-6.4018,-6.4041,-6.4083,-6.4054,-6.41,-6.4131,-6.4116,-6.4173,-6.4188,-6.4219,-6.4282,-6.4311,-6.4296,-6.4408,-6.4374,-6.4379,-6.4382,-6.4418,-6.4429,-6.4439,-6.4309,-6.4308,-6.4308,0,0,-6.3982,-6.4005,-6.4056,-6.408,-6.4116,-6.4127,-6.4139,-6.4172,-6.4182,-6.4239,-6.423,-6.4266,-6.4331,-6.4354,-6.4374,-6.4456,-6.4445,-6.4467,-6.4508,-6.4544,-6.4554,-6.4562,-6.4591,-6.4602,-6.4474,-6.4474,-6.4474,0,-6.4009,-6.4074,-6.4082,-6.4129,-6.4154,-6.4146,-6.4196,-6.4219,-6.4263,-6.428,-6.4263,-6.4346,-6.4366,-6.4436,-6.4456,-6.4472,-6.4486,-6.4463,-6.4552,-6.456,-6.4568,-6.4596,-6.4607,-6.4476,-6.4476,-6.4476,-6.4476,0,-6.4107,-6.4152,-6.4189,-6.4235,-6.4264,-6.4312,-6.4326,-6.4354,-6.4354,-6.4367,-6.4425,-6.445,-6.4491,-6.4508,-6.4507,-6.4577,-6.4567,-6.4551,-6.452,-6.4582,-6.4608,-6.4619,-6.448,-6.4479,-6.4478,-6.4478,0,0,-6.4191,-6.4243,-6.4256,-6.4278,-6.4318,-6.4352,-6.4401,-6.4444,-6.4468,-6.4499,-6.4539,-6.4596,-6.4583,-6.4606,-6.4607,-6.464,-6.4704,-6.462,-6.4621,-6.4635,-6.4783,-6.4795,-6.4807,-6.4698,-6.47,-6.4701,-6.478,0,-6.4265,-6.4352,-6.4361,-6.4438,-6.448,-6.4474,-6.4517,-6.4545,-6.4558,-6.4595,-6.4609,-6.4649,-6.4628,-6.4642,-6.4674,-6.4689,-6.4733,-6.4684,-6.4734,-6.4736,-6.4726,-6.4821,-6.4832,-6.4906,-6.4791,-6.4793,-6.4794,0,-6.4362,-6.4399,-6.4482,-6.4518,-6.4536,-6.4574,-6.4615,-6.465,-6.4682,-6.469,-6.4717,-6.4715,-6.4764,-6.4732,-6.4799,-6.4765,-6.4787,-6.4797,-6.48,-6.4804,-6.4768,-6.4827,-6.4929,-6.494,-6.481,-6.4809,-6.4808,0,-6.4415,-6.4486,-6.4545,-6.4563,-6.4607,-6.4634,-6.4653,-6.4683,-6.4709,-6.4744,-6.4761,-6.4801,-6.4822,-6.4853,-6.4862,-6.4838,-6.4929,-6.4897,-6.4936,-6.4936,-6.4954,-6.4953,-6.5061,-6.4969,-6.4969,-6.4969,-6.4968,0,-6.4496,-6.4547,-6.457,-6.4606,-6.4662,-6.4672,-6.4728,-6.4745,-6.4773,-6.4811,-6.4808,-6.4844,-6.4854,-6.4891,-6.4898,-6.4953,-6.4963,-6.4969,-6.497,-6.497,-6.4969,-6.4983,-6.4978,-6.4971,-6.4971,-6.497,-6.497,0,-6.4564,-6.4582,-6.4646,-6.4683,-6.4693,-6.4734,-6.4764,-6.4799,-6.4813,-6.4862,-6.4873,-6.4894,-6.4939,-6.4951,-6.5003,-6.5008,-6.5073,-6.5069,-6.5063,-6.5062,-6.51,-6.5097,-6.5221,-6.5238,-6.5135,-6.5136,-6.5137,0,-6.4615,-6.4654,-6.4696,-6.4723,-6.4744,-6.4787,-6.4814,-6.4826,-6.4854,-6.4895,-6.4924,-6.4969,-6.5005,-6.5076,-6.5094,-6.5135,-6.5132,-6.5173,-6.5138,-6.5136,-6.5133,-6.513,-6.5134,-6.5179,-6.518,-6.5181,-6.5182,0,-6.4702,-6.471,-6.475,-6.4795,-6.4828,-6.4863,-6.4896,-6.4918,-6.4934,-6.4966,-6.5012,-6.5041,-6.5096,-6.514,-6.5181,-6.5199,-6.5193,-6.5193,-6.5204,-6.5203,-6.5198,-6.5201,-6.508,-6.519,-6.5189,-6.5188,-6.5188,-6.5188,-6.4763,-6.4798,-6.4834,-6.488,-6.4907,-6.4939,-6.4974,-6.4993,-6.5033,-6.508,-6.5084,-6.5135,-6.5167,-6.5222,-6.5243,-6.5281,-6.5269,-6.5285,-6.5289,-6.5292,-6.5296,-6.5193,-6.5289,-6.5289,-6.5288,-6.5288,-6.5288,0,-6.4851,-6.4874,-6.4916,-6.4965,-6.5001,-6.4995,-6.5032,-6.5062,-6.5107,-6.5139,-6.5175,-6.5229,-6.5273,-6.5296,-6.5339,-6.5365,-6.5364,-6.5376,-6.5374,-6.5378,-6.5304,-6.5291,-6.5377,-6.5377,-6.5377,-6.5377,-6.5377,-6.5377,-6.49,-6.496,-6.4972,-6.5045,-6.5068,-6.5119,-6.5141,-6.517,-6.5196,-6.5257,-6.5294,-6.531,-6.5338,-6.5384,-6.5423,-6.5428,-6.5444,-6.5458,-6.5462,-6.5392,-6.5383,-6.5374,-6.5362,-6.5461,-6.5461,-6.5533,-6.5533,-6.5534]}]]